Regional Weather Roundup
Issued by NWS

Home | Current Version | Previous Version | Graphics & Text | Print | Product List | Glossary On
Versions: 1 2 3 4 5 6 7 8 9 10 11 12 13 14 15 16 17 18 19 20 21 22 23 24 25 26 27 28 29 30 31 32 33 34 35 36 37 38 39 40 41 42 43 44 45 46 47 48 49 50
000
ASUS43 KOAX 280810
RWRNE

WEATHER ROUNDUP FOR NEBRASKA
NATIONAL WEATHER SERVICE OMAHA NE
300 AM CDT FRI JUL 28 2017

NOTES: SATELLITE DATA IS BEING USED TO AUGMENT CLOUD COVER ABOVE
       12000 FEET.
       "FAIR" INDICATES FEW OR NO CLOUDS BELOW 12,000 FEET WITH NO
       SIGNIFICANT WEATHER AND/OR OBSTRUCTIONS TO VISIBILITY.


NEZ001>004-019>022-054>056-280900-
NEBRASKA PANHANDLE

CITY           SKY/WX    TMP DP  RH WIND       PRES   REMARKS
SCOTTSBLUFF    CLOUDY    66  62  87 SE14      30.09S
ALLIANCE       CLOUDY    62  61  96 MISG      30.07F
CHADRON        CLOUDY    65  60  84 NW8       30.02S
GORDON         FAIR      65  60  86 SE6       30.04F
KIMBALL        CLOUDY    63  63 100 E8        30.15R
SIDNEY         CLOUDY    65  59  81 NE17      30.15R
$$

NEZ057>060-069>072-079>082-280900-
SOUTHWEST NEBRASKA

CITY           SKY/WX    TMP DP  RH WIND       PRES   REMARKS
NORTH PLATTE   CLOUDY    68  62  81 E10       30.05F
IMPERIAL       MOCLDY    65  63  93 S10       30.06F
LEXINGTON      PTCLDY    65  62  90 E5        30.08R
MCCOOK         PTCLDY    67  62  84 S3        30.07F
OGALLALA       CLOUDY    69  64  83 N16       30.09R
$$

NEZ005>010-023>029-035>040-094-280900-
NORTH CENTRAL NEBRASKA

CITY           SKY/WX    TMP DP  RH WIND       PRES   REMARKS
VALENTINE      CLOUDY    71  58  63 S13       30.07R
AINSWORTH      PTCLDY    67  62  82 S8        30.08S
BROKEN BOW     CLOUDY    66  62  87 CALM      30.08R
O`NEILL        CLOUDY    69  63  80 SE5       30.07S
ORD            PTCLDY    65  62  90 CALM      30.05F
THEDFORD       CLOUDY    68  62  79 SE5       30.10F
$$

NEZ041-046>049-061>064-073>077-083>087-280900-
SOUTH CENTRAL NEBRASKA

CITY           SKY/WX    TMP DP  RH WIND       PRES   REMARKS
GRAND ISLAND   CLOUDY    64  64 100 N3        30.06S
AURORA         MOCLDY    63  63  99 NE3       30.05S
HASTINGS       MOCLDY    66  63  90 CALM      30.07S
HEBRON         MOCLDY    65  64  96 CALM      30.03S
HOLDREGE       CLOUDY    64  62  92 SE6       30.06F
KEARNEY        PTCLDY    64  63  96 NE3       30.07F
YORK           CLOUDY    63  63 100 N6        30.04S
$$

NEZ011>018-030>034-042>045-280900-
NORTHEAST NEBRASKA

CITY           SKY/WX    TMP DP  RH WIND       PRES   REMARKS
NORFOLK        CLOUDY    67  63  87 CALM      30.05S
ALBION         CLOUDY    66  65  96 CALM      30.06F
BLAIR          PTCLDY    68  65  90 N7        30.03S
COLUMBUS       PTCLDY    65  63  93 CALM      30.04F
FREMONT        PTCLDY    65  64  94 CALM      30.03S
TEKAMAH        CLEAR     64  62  93 NW6       30.02F
WAYNE          CLOUDY    63  62  98 CALM      30.05S
$$

NEZ050>053-065>068-078-088>093-280900-
SOUTHEAST NEBRASKA

CITY           SKY/WX    TMP DP  RH WIND       PRES   REMARKS
LINCOLN        PTCLDY    66  64  93 N6        30.03R
OMAHA EPPLEY   PTCLDY    66  63  90 N7        30.01F
BEATRICE       PTCLDY    66  64  94 NE6       30.01S
FALLS CITY     PTCLDY    69  64  84 NE3       29.98R
NEBRASKA CITY  CLEAR     66  66 100 NE5       30.01S
PLATTSMOUTH    CLEAR     67  62  86 NE3       30.01F
$$

NEZ044-045-051>053-067-280900-
OMAHA AREA

CITY           SKY/WX    TMP DP  RH WIND       PRES   REMARKS
OMAHA EPPLEY   PTCLDY    66  63  90 N7        30.01F
BLAIR          PTCLDY    68  65  90 N7        30.03S
FREMONT        PTCLDY    65  64  94 CALM      30.03S
MILLARD        PTCLDY    69  66  90 CALM      30.01S
OFFUTT AFB     CLEAR     68  63  84 NE5       30.00F
PLATTSMOUTH    CLEAR     67  62  86 NE3       30.01F
WAHOO          FAIR      64  64  97 N5        30.02S
$$



USA.gov is the U.S. government's official web portal to all federal, state and local government web resources and services.